Flag for Bosnia-Herzegovina Weather past 2 weeks in Mostar, Bosnia-Herzegovina

Now
77 °F

Scattered clouds.


Feels Like: 79 °F
Forecast: 71 / 94 °F
Wind: 5 mph from Southeast

Location: Mostar

Current Time: Aug 3, 2015 at 1:11:43 PM

Latest Report: Aug 3, 2015 at 12:30 PM


Visibility: N/A

Pressure: 29.95 "Hg

Humidity: 74%

Dew point: 68 °F

Location of MostarLocation

Historic Weather in Mostar — Graph

°F

Mostar temperature yesterday

Maximum temperature yesterday: 97 °F (at 1:00 PM)
Minimum temperature yesterday: 70 °F (at 5:30 AM)
Average temperature yesterday: 84 °F

Past Weeks' High & Low Weather Summary

 TemperatureHumidityPressure
High106 °F (Jul 20, 3:00 PM)88% (Jul 27, 5:00 AM)29.98 "Hg (Jul 27, 5:00 AM)
Low66 °F (Jul 24, 5:00 AM)13% (Jul 21, 3:30 PM)29.65 "Hg (Jul 27, 2:00 PM)
Average85 °F48%29.79 "Hg
* Reported Jul 19 11:00 AM — Aug 3 11:30 AM, Mostar, Weather by CustomWeather, © 2015

Note: Actual official high and low records may vary slightly from our data, if they occured in-between our weather recording intervals... More about our weather records

Advertising

Mostar weather history for previous 24 hours

 ConditionsComfort  
Time TempWeatherWind HumidityBarometerVisibility
11:30 AM
Mon, Aug 3
73 °FThundershowers. Scattered clouds.3 mph78%29.95 "HgN/A
11:00 AM72 °FThunderstorms. Scattered clouds.8 mph88%29.98 "HgN/A
10:30 AM73 °FBroken clouds.6 mph83%29.95 "HgN/A
10:00 AM72 °FBroken clouds.6 mph83%29.95 "HgN/A
9:30 AM70 °FLight rain. Broken clouds.6 mph88%29.95 "HgN/A
9:00 AM70 °FThunderstorms. Broken clouds.6 mph88%29.98 "Hg4 mi
8:30 AM70 °FThundershowers. Broken clouds.3 mph88%29.95 "HgN/A
7:49 AM70 °FThunderstorms. Scattered clouds.5 mph88%29.95 "HgN/A
7:30 AM70 °FThunderstorms. Passing clouds.6 mph88%29.95 "Hg6 mi
7:00 AM72 °FThundershowers. Passing clouds.8 mph83%29.95 "HgN/A
6:30 AM73 °FPassing clouds.5 mph69%29.95 "HgN/A
6:00 AM72 °FThundershowers. Passing clouds.6 mph83%29.95 "HgN/A
5:30 AM73 °FSprinkles. Passing clouds.12 mph74%29.98 "HgN/A
5:19 AM75 °FThundershowers. Passing clouds.13 mph65%29.95 "HgN/A
5:00 AM73 °FThundershowers. Passing clouds.9 mph78%29.98 "HgN/A
4:23 AM73 °FThundershowers. Passing clouds.5 mph74%29.98 "HgN/A
4:00 AM73 °FThundershowers. Passing clouds.10 mph74%29.98 "HgN/A
3:00 AM75 °FThunderstorms. Passing clouds.8 mph78%29.98 "HgN/A
1:51 AM77 °FThunderstorms. Passing clouds.14 mph74%29.98 "HgN/A
1:00 AM79 °FThundershowers. Passing clouds.2 mph74%29.95 "HgN/A
12:00 AM81 °FPassing clouds.3 mph62%29.92 "HgN/A
11:00 PM
Sun, Aug 2
82 °FPassing clouds.2 mph58%29.95 "HgN/A
10:00 PM84 °FPassing clouds.2 mph55%29.95 "HgN/A
9:00 PM86 °FPassing clouds.2 mph49%29.95 "HgN/A
8:00 PM90 °FPassing clouds.5 mph41%29.92 "HgN/A
7:00 PM91 °FPassing clouds.3 mph44%29.92 "HgN/A
6:00 PM91 °FPassing clouds.2 mph44%29.95 "HgN/A
4:00 PM91 °FPassing clouds.9 mph44%29.95 "HgN/A
3:00 PM95 °FPassing clouds.15 mph36%29.92 "HgN/A
2:00 PM97 °FPassing clouds.10 mph32%29.92 "HgN/A
1:00 PM97 °FPassing clouds.7 mph32%29.92 "HgN/A
Weather by CustomWeather, © 2015

See weather overviewHow to use our weather pages